SCP
-0 -0 -0 -0 0 0 0 0 0 0 0 0 0 0 0 0 0 0 0 0 0 0 0 0 0 0 0 0 0 0 0 0 0 0 0 0 0 0 0 0 0 0 0 0 0
0 -0 -0 -0 -0 0 0 0 0 0 0 0 0 0 0 0 0 0 0 0 0 0 0 0 0 0 0 0 0 0 0 0 0 0 0 0 0 0 0 0 0 0 0 0 0
-0 -0 -0 -0 -0 -0 0 0 0 0 0 0 0 0 0 0 0 0 0 0 0 0 0 0 0 0 0 0 0 0 0 0 0 0 0 0 0 0 0 0 0 0 0 0 0
-0 -0 -0 -0 -0 -0 -0 0 0 0 0 0 0 0 0 0 0 0 0 0 0 0 0 0 0 0 0 0 0 0 0 0 0 0 0 0 0 0 0 0 0 0 0 0 0
-0 -0 -0 -0 -0 -0 -0 -0 0 0 0 0 0 0 0 0 0 0 0 0 0 0 0 0 0 0 0 0 0 0 0 0 0 0 0 0 0 0 0 0 0 0 0 0 0
-0 -0 -0 -0 -0 -0 -0 -0 -0 0 0 0 0 0 0 0 0 0 0 0 0 0 0 0 0 0 0 0 0 0 0 0 0 0 0 0 0 0 0 0 0 0 0 0 0
-0 -0 -0 -0 -0 -0 -0 -0 -0 0 0 0 0 0 0 0 0 0 0 0 0 0 0 0 0 0 0 0 0 0 0 0 0 0 0 0 0 0 0 0 0 0 0 0 0
-0 -0 -0 -0 -0 -0 -0 -0 -0 0 -0 -0 0 0 0 0 0 0 0 0 0 0 0 0 0 0 0 0 0 0 0 0 0 0 0 0 0 0 0 0 0 0 0 0 0
-0 -0 -0 -0 -0 -0 -0 -0 -0 -0 0 0 0 0 0 0 0 0 0 0 0 0 0 0 0 0 0 0 0 0 0 0 0 0 0 0 0 0 0 0 0 0 0 0 0
-0 -0 -0 -0 -0 -0 -0 0 0 0 0 0 0 0 0 0 0 0 0 0 0 0 0 0 0 0 0 0 0 0 0 0 0 0 0 0 0 0 0 0 0 0 0 0 0
-0 -0 -0 -0 -0 0 0 0 0 0 0 0 0 0 0 0 0 0 0 0 0 0 0 0 0 0 0 0 0 0 0 0 0 0 0 0 0 0 0 0 0 0 0 0 0
-0 -0 -0 -0 -0 0 0 0 0 0 0 0 0 -0 0 0 0 0 0 0 0 0 0 0 0 0 0 0 0 0 0 0 0 0 0 0 0 0 0 0 0 0 0 0 0
0 0 -0 -0 -0 0 0 0 0 0 0 0 0 0 0 0 0 0 0 0 0 0 0 0 0 0 0 0 0 0 0 0 0 0 0 0 0 0 0 0 0 0 0 0 0
0 0 0 0 0 0 0 0 0 0 0 0 0 0 0 0 0 0 0 0 0 0 0 0 0 0 0 0 0 0 0 0 0 0 0 0 -0 0 0 0 0 0 0 0 0
0 0 0 0 0 0 0 0 0 0 0 0 0 0 0 0 0 0 0 0 0 0 0 0 0 0 0 0 0 0 0 0 0 0 0 0 0 0 0 0 0 0 0 0 0
-0 0 0 0 0 0 0 0 0 0 0 0 0 0 0 0 0 0 0 0 0 0 0 0 0 0 0 0 0 0 0 0 0 0 0 0 0 0 0 0 0 0 0 0 0
-0 -0 -0 0 0 0 -0 0 0 0 0 0 0 0 0 0 0 0 0 0 0 0 0 0 0 0 0 0 0 0 0 0 0 0 0 0 0 0 0 0 0 0 0 0 0
-0 0 0 0 -0 0 0 0 0 0 0 0 0 0 0 0 0 0 0 0 0 0 0 0 0 0 0 0 0 0 0 0 0 0 0 0 0 0 0 0 0 0 0 0 0
-0 0 0 0 -0 -0 0 0 0 0 0 0 0 0 0 0 0 0 0 0 0 0 0 0 0 0 0 0 0 0 0 0 0 0 0 0 0 0 0 0 0 0 0 0 0
0 0 0 0 0 -0 0 0 0 0 0 0 0 0 0 0 0 0 0 0 0 0 0 0 0 0 0 0 0 0 0 0 0 0 0 0 0 0 0 0 0 0 0 0 0
0 0 0 0 -0 0 0 0 0 0 0 0 0 0 0 0 0 0 0 0 0 0 0 0 0 0 0 0 0 0 0 0 0 0 0 0 0 0 0 0 0 0 0 0 0
0 0 0 -0 0 0 0 0 0 0 0 0 0 0 0 0 0 0 0 0 0 0 0 0 0 0 0 0 0 0 0 0 0 0 0 0 0 0 0 0 0 0 0 0 0
0 0 0 0 0 0 0 0 0 0 0 0 0 0 0 0 0 0 0 0 0 0 0 0 0 0 0 0 0 0 0 0 0 0 0 0 0 0 0 0 0 0 0 0 0
0 0 0 0 0 0 0 0 0 0 0 0 0 0 0 0 0 0 0 0 0 0 0 0 0 0 0 0 0 0 0 0 0 0 0 0 0 0 0 0 0 0 0 0 0
0 0 0 0 0 0 0 0 0 0 0 0 0 0 0 0 0 0 0 0 0 0 0 0 0 0 0 0 0 0 0 0 0 0 0 0 0 0 0 0 0 0 0 0 0
0 0 0 0 0 0 0 0 0 0 0 0 0 0 0 0 0 0 0 0 0 0 0 0 0 0 0 0 0 0 0 0 -0 -0 -0 0 -0 0 0 0 0 0 0 0 0
0 0 0 0 0 0 0 0 0 0 0 0 0 0 0 0 0 0 0 0 0 0 0 0 0 0 0 0 0 0 0 0 0 0 0 0 0 0 0 0 0 0 0 0 0
Wind_Speed_500mb
24 21 19 15 14 14 14 12 12 13 12 12 13 13 14 15 17 23 26 16 14 23 16 16 18 20 18 15 12 12 6 11 11 12 7 6 4 9 12 13 9 10 20 23 27
28 23 19 16 13 13 13 12 12 12 11 11 12 14 14 14 19 23 10 11 13 27 22 17 19 21 12 12 11 9 9 16 8 11 8 7 10 12 16 28 12 22 19 27 26
35 27 21 16 14 12 12 11 10 9 9 9 10 12 11 13 14 4 7 18 18 23 18 16 24 20 11 13 11 11 11 10 12 20 18 18 24 8 9 19 20 26 30 26 20
40 33 25 19 16 13 10 9 9 9 10 9 9 9 10 7 4 3 8 24 25 21 18 25 22 14 10 14 13 9 16 18 8 9 11 14 10 12 21 26 27 26 28 23 17
44 35 28 22 17 13 9 7 8 10 10 8 7 8 9 9 8 6 13 24 21 20 23 22 17 11 9 10 13 9 7 9 13 18 16 12 20 14 18 23 30 27 14 8 14
51 40 30 22 16 11 9 9 10 9 8 7 6 7 8 9 12 12 14 14 19 27 26 18 10 9 11 8 8 10 9 15 14 15 12 15 20 11 10 23 23 14 12 17 12
56 46 35 25 16 12 10 11 12 10 8 6 6 9 16 18 15 17 19 17 23 25 18 11 9 5 13 8 4 3 8 11 22 20 14 8 26 17 17 11 14 20 19 19 18
54 51 39 29 20 14 12 12 13 13 10 7 8 12 14 11 24 23 24 20 21 20 14 5 5 5 2 12 6 6 4 10 3 5 5 13 33 20 11 5 9 16 20 24 19
51 47 43 34 24 17 15 16 20 18 16 13 13 10 13 9 25 30 28 21 23 21 12 10 3 5 6 5 6 2 14 9 11 5 7 7 6 19 12 11 17 15 21 26 30
54 50 41 36 27 19 20 22 10 12 13 15 18 12 11 4 17 33 31 22 17 16 10 8 6 6 5 10 12 6 7 5 12 3 14 28 28 25 37 28 27 27 26 27 24
55 53 46 36 30 20 17 11 6 6 14 17 7 7 9 5 11 24 32 30 17 5 12 4 13 22 22 18 10 7 11 19 22 22 13 26 25 27 36 28 30 36 31 30 32
54 55 51 38 31 22 15 8 8 15 18 30 38 47 39 12 2 14 33 23 14 17 9 7 21 24 14 12 15 15 19 21 22 17 15 26 28 26 25 25 36 39 34 36 36
57 56 54 41 31 18 18 10 10 18 10 12 12 15 23 36 15 17 32 27 11 16 17 23 9 11 19 18 17 18 22 17 23 23 15 21 34 25 21 16 27 37 44 42 48
60 58 52 38 18 6 13 15 10 14 6 6 4 2 16 16 12 28 34 26 8 22 16 18 24 24 18 21 19 25 18 27 23 21 27 5 29 35 27 26 30 42 40 44 45
64 53 40 29 23 18 11 12 6 2 6 5 5 7 21 14 3 10 36 24 20 13 12 8 7 10 18 27 21 21 9 16 22 24 25 32 29 18 9 19 28 30 42 36 29
59 39 30 19 13 13 23 9 9 1 4 10 7 5 11 10 4 8 14 14 10 11 11 25 7 8 12 4 25 6 22 24 8 12 25 32 29 23 25 32 22 16 14 20 26
48 27 13 5 6 23 28 17 5 2 16 13 11 8 5 3 6 4 9 18 18 10 18 25 34 29 18 28 28 24 22 16 19 20 31 25 28 28 16 19 19 17 16 22 26
28 27 22 14 23 21 20 4 7 8 11 18 19 14 13 24 14 16 4 5 7 14 14 14 19 8 9 22 23 16 16 17 29 27 35 17 19 14 12 10 6 5 9 25 36
23 33 38 27 13 11 3 8 5 5 10 17 14 16 13 15 9 19 22 10 5 5 7 7 12 5 2 3 3 9 20 23 37 39 27 25 31 22 16 7 2 7 20 35 44
6 18 26 17 11 5 6 9 10 7 7 15 6 12 9 15 9 15 3 18 17 11 10 14 28 17 24 10 20 17 9 15 10 16 31 21 18 16 19 9 10 17 35 45 49
8 7 23 11 10 8 6 6 8 11 4 2 9 8 11 10 11 14 12 25 11 17 28 12 9 17 11 15 28 26 30 29 12 17 14 29 20 3 11 12 19 26 38 43 48
10 4 26 7 6 6 4 7 9 10 17 4 14 20 21 14 12 13 20 16 16 16 15 9 9 16 29 25 32 29 31 21 9 11 11 19 24 7 12 14 23 28 30 30 36
10 11 18 6 5 5 7 6 6 8 10 7 5 8 7 2 10 12 9 4 8 6 5 6 9 9 9 8 3 11 12 15 12 3 17 15 11 9 13 33 42 32 24 25 28
9 3 17 24 13 6 8 6 5 16 6 8 5 5 4 9 12 7 9 7 12 16 17 3 9 22 27 32 6 8 6 10 7 6 10 16 38 37 33 25 25 21 25 29 34
13 5 6 6 11 8 5 6 6 8 6 6 0 3 7 7 8 15 13 9 17 16 12 7 7 15 27 28 25 30 37 35 32 34 26 42 43 41 33 18 21 27 30 37 46
8 5 5 4 5 7 2 2 6 3 6 8 11 11 3 7 13 26 36 28 16 9 14 14 10 7 18 25 30 36 42 43 42 40 42 40 47 23 10 15 24 30 34 46 51
12 9 3 2 5 5 4 5 7 19 9 14 14 17 21 28 30 34 39 46 33 21 15 9 9 5 15 16 25 26 19 28 29 23 18 25 26 8 19 24 32 42 46 52 48
Wind_Direction_500mb
350 339 328 314 302 298 297 292 286 287 277 265 260 257 258 265 268 270 269 251 226 207 174 155 168 175 166 153 146 145 181 215 214 198 225 189 15 315 317 290 291 264 308 305 314
360 351 341 324 309 304 301 297 295 292 285 278 264 258 263 277 283 276 242 213 197 175 169 165 163 153 139 151 161 186 209 214 208 211 252 290 303 316 316 305 282 294 298 323 331
11 1 350 341 328 318 311 307 304 300 297 288 271 261 275 297 305 205 223 191 166 172 184 184 158 153 147 156 170 170 224 205 231 226 252 280 284 260 274 290 286 287 309 316 316
15 11 2 351 339 328 322 322 323 322 313 298 277 254 263 280 156 152 169 172 171 173 184 161 156 146 150 166 179 205 228 219 233 238 248 257 266 252 231 261 297 305 291 293 299
15 13 8 1 352 342 335 333 329 327 323 306 281 258 260 264 251 159 144 172 184 183 167 160 157 151 164 158 155 216 252 222 255 276 256 253 252 248 234 268 315 314 297 303 310
13 12 10 7 3 2 353 343 338 337 339 321 281 263 244 248 201 182 157 166 180 162 157 154 157 157 124 150 204 186 262 291 296 282 279 273 277 179 252 299 293 287 289 297 297
17 13 10 12 14 6 354 339 339 342 345 342 299 276 260 231 196 191 178 165 147 156 156 142 127 136 141 146 152 166 274 293 264 269 256 233 263 241 266 264 260 285 288 278 288
13 11 7 0 357 352 342 330 322 316 314 311 300 295 256 201 196 191 185 181 184 183 165 171 156 131 162 119 66 213 221 261 147 292 270 212 270 292 229 199 285 303 304 306 292
5 4 0 355 342 334 332 325 306 291 280 279 287 293 269 221 206 188 189 196 186 189 195 214 210 118 131 179 260 65 262 258 297 301 245 238 290 311 267 309 288 285 293 300 303
354 352 350 345 337 317 313 324 316 286 260 259 253 288 242 154 183 194 195 182 165 166 153 167 132 174 140 195 246 194 214 221 270 271 311 291 281 277 286 286 286 293 289 288 295
339 342 338 334 329 308 297 317 330 285 238 226 196 229 252 300 189 203 203 194 186 139 197 98 216 222 223 217 237 244 260 272 275 278 284 279 283 280 285 289 277 284 278 276 277
331 331 331 324 318 300 269 263 273 304 291 275 255 255 242 204 314 198 193 181 181 202 145 206 243 242 223 207 219 234 265 274 279 274 207 289 284 283 271 266 267 269 273 268 274
328 325 320 320 312 289 240 238 299 330 282 289 242 238 233 219 226 213 182 183 181 198 205 232 236 99 205 217 227 233 246 260 266 300 245 276 279 267 263 246 261 256 257 267 275
326 322 315 315 312 294 212 199 303 323 308 272 244 195 165 156 208 211 191 176 183 219 201 250 263 244 234 243 223 264 232 252 272 293 288 345 287 278 277 260 248 259 260 263 269
329 323 308 301 286 255 179 179 317 33 332 42 75 133 164 188 114 182 192 196 201 174 188 216 198 175 212 244 181 256 186 247 272 273 285 274 274 267 230 254 257 259 269 287 307
336 325 306 293 281 190 179 173 129 99 286 8 113 125 153 241 2 98 177 205 217 206 240 262 237 245 260 230 201 273 292 285 259 272 255 262 250 266 257 258 276 268 304 338 340
347 345 338 312 131 158 164 154 96 174 332 4 343 323 239 232 238 267 170 191 214 199 233 261 253 254 248 270 257 252 264 277 265 246 269 283 265 267 261 234 253 294 332 349 346
29 46 49 93 131 137 158 139 99 333 351 346 350 36 68 22 33 29 78 233 219 250 273 268 271 215 175 219 260 231 230 253 271 277 282 250 255 253 234 265 121 116 1 351 345
59 67 60 76 123 117 108 66 110 358 337 350 28 26 2 12 33 19 355 352 12 150 270 281 243 298 331 31 209 253 247 278 270 270 270 248 261 262 237 223 317 14 359 348 340
14 60 41 56 51 108 84 113 151 59 45 36 318 348 339 2 30 18 265 267 327 338 28 257 279 254 269 305 252 237 332 268 235 277 267 249 258 259 259 204 11 348 342 339 339
37 69 13 10 24 66 90 88 121 88 109 159 235 248 270 303 301 291 278 296 346 326 313 314 258 248 304 241 266 277 256 242 283 267 270 282 272 52 133 74 355 343 344 344 340
46 67 11 6 29 30 65 346 350 17 32 270 231 225 236 244 238 221 231 223 255 284 295 339 298 256 252 266 275 281 264 234 226 206 238 276 268 104 92 2 353 347 340 335 334
30 351 3 72 63 42 350 354 357 33 18 356 320 21 10 305 267 302 297 207 79 328 2 349 223 277 259 229 98 261 283 280 253 171 223 249 262 146 282 325 330 332 325 323 328
20 28 18 54 48 44 6 9 4 358 94 4 298 71 290 268 249 275 267 287 273 275 300 13 248 251 265 290 263 264 243 258 213 248 276 257 283 286 300 305 303 308 314 319 324
34 65 24 14 43 25 322 340 350 349 352 19 78 0 247 262 259 250 265 272 287 275 213 207 242 250 271 274 268 266 265 257 248 255 260 280 283 290 304 295 294 301 305 312 319
54 11 25 104 353 356 66 97 319 2 319 305 275 315 275 238 262 290 294 283 258 267 212 188 272 254 277 276 273 279 270 259 257 264 266 271 276 305 259 270 285 297 306 309 314
48 19 54 359 357 327 357 33 334 333 282 250 314 315 289 281 290 281 275 271 253 239 246 212 243 256 270 313 311 281 275 254 251 247 257 261 289 277 286 294 305 306 307 306 307
Wind_Speed_850mb
24 21 19 15 14 14 14 12 12 13 12 12 13 13 14 15 17 23 26 16 14 23 16 16 18 20 18 15 12 12 6 11 11 12 7 6 4 9 12 13 9 10 20 23 27
28 23 19 16 13 13 13 12 12 12 11 11 12 14 14 14 19 23 10 11 13 27 22 17 19 21 12 12 11 9 9 16 8 11 8 7 10 12 16 28 12 22 19 27 26
35 27 21 16 14 12 12 11 10 9 9 9 10 12 11 13 14 4 7 18 18 23 18 16 24 20 11 13 11 11 11 10 12 20 18 18 24 8 9 19 20 26 30 26 20
40 33 25 19 16 13 10 9 9 9 10 9 9 9 10 7 4 3 8 24 25 21 18 25 22 14 10 14 13 9 16 18 8 9 11 14 10 12 21 26 27 26 28 23 17
44 35 28 22 17 13 9 7 8 10 10 8 7 8 9 9 8 6 13 24 21 20 23 22 17 11 9 10 13 9 7 9 13 18 16 12 20 14 18 23 30 27 14 8 14
51 40 30 22 16 11 9 9 10 9 8 7 6 7 8 9 12 12 14 14 19 27 26 18 10 9 11 8 8 10 9 15 14 15 12 15 20 11 10 23 23 14 12 17 12
56 46 35 25 16 12 10 11 12 10 8 6 6 9 16 18 15 17 19 17 23 25 18 11 9 5 13 8 4 3 8 11 22 20 14 8 26 17 17 11 14 20 19 19 18
54 51 39 29 20 14 12 12 13 13 10 7 8 12 14 11 24 23 24 20 21 20 14 5 5 5 2 12 6 6 4 10 3 5 5 13 33 20 11 5 9 16 20 24 19
51 47 43 34 24 17 15 16 20 18 16 13 13 10 13 9 25 30 28 21 23 21 12 10 3 5 6 5 6 2 14 9 11 5 7 7 6 19 12 11 17 15 21 26 30
54 50 41 36 27 19 20 22 10 12 13 15 18 12 11 4 17 33 31 22 17 16 10 8 6 6 5 10 12 6 7 5 12 3 14 28 28 25 37 28 27 27 26 27 24
55 53 46 36 30 20 17 11 6 6 14 17 7 7 9 5 11 24 32 30 17 5 12 4 13 22 22 18 10 7 11 19 22 22 13 26 25 27 36 28 30 36 31 30 32
54 55 51 38 31 22 15 8 8 15 18 30 38 47 39 12 2 14 33 23 14 17 9 7 21 24 14 12 15 15 19 21 22 17 15 26 28 26 25 25 36 39 34 36 36
57 56 54 41 31 18 18 10 10 18 10 12 12 15 23 36 15 17 32 27 11 16 17 23 9 11 19 18 17 18 22 17 23 23 15 21 34 25 21 16 27 37 44 42 48
60 58 52 38 18 6 13 15 10 14 6 6 4 2 16 16 12 28 34 26 8 22 16 18 24 24 18 21 19 25 18 27 23 21 27 5 29 35 27 26 30 42 40 44 45
64 53 40 29 23 18 11 12 6 2 6 5 5 7 21 14 3 10 36 24 20 13 12 8 7 10 18 27 21 21 9 16 22 24 25 32 29 18 9 19 28 30 42 36 29
59 39 30 19 13 13 23 9 9 1 4 10 7 5 11 10 4 8 14 14 10 11 11 25 7 8 12 4 25 6 22 24 8 12 25 32 29 23 25 32 22 16 14 20 26
48 27 13 5 6 23 28 17 5 2 16 13 11 8 5 3 6 4 9 18 18 10 18 25 34 29 18 28 28 24 22 16 19 20 31 25 28 28 16 19 19 17 16 22 26
28 27 22 14 23 21 20 4 7 8 11 18 19 14 13 24 14 16 4 5 7 14 14 14 19 8 9 22 23 16 16 17 29 27 35 17 19 14 12 10 6 5 9 25 36
23 33 38 27 13 11 3 8 5 5 10 17 14 16 13 15 9 19 22 10 5 5 7 7 12 5 2 3 3 9 20 23 37 39 27 25 31 22 16 7 2 7 20 35 44
6 18 26 17 11 5 6 9 10 7 7 15 6 12 9 15 9 15 3 18 17 11 10 14 28 17 24 10 20 17 9 15 10 16 31 21 18 16 19 9 10 17 35 45 49
8 7 23 11 10 8 6 6 8 11 4 2 9 8 11 10 11 14 12 25 11 17 28 12 9 17 11 15 28 26 30 29 12 17 14 29 20 3 11 12 19 26 38 43 48
10 4 26 7 6 6 4 7 9 10 17 4 14 20 21 14 12 13 20 16 16 16 15 9 9 16 29 25 32 29 31 21 9 11 11 19 24 7 12 14 23 28 30 30 36
10 11 18 6 5 5 7 6 6 8 10 7 5 8 7 2 10 12 9 4 8 6 5 6 9 9 9 8 3 11 12 15 12 3 17 15 11 9 13 33 42 32 24 25 28
9 3 17 24 13 6 8 6 5 16 6 8 5 5 4 9 12 7 9 7 12 16 17 3 9 22 27 32 6 8 6 10 7 6 10 16 38 37 33 25 25 21 25 29 34
13 5 6 6 11 8 5 6 6 8 6 6 0 3 7 7 8 15 13 9 17 16 12 7 7 15 27 28 25 30 37 35 32 34 26 42 43 41 33 18 21 27 30 37 46
8 5 5 4 5 7 2 2 6 3 6 8 11 11 3 7 13 26 36 28 16 9 14 14 10 7 18 25 30 36 42 43 42 40 42 40 47 23 10 15 24 30 34 46 51
12 9 3 2 5 5 4 5 7 19 9 14 14 17 21 28 30 34 39 46 33 21 15 9 9 5 15 16 25 26 19 28 29 23 18 25 26 8 19 24 32 42 46 52 48
Wind_Direction_850mb
350 339 328 314 302 298 297 292 286 287 277 265 260 257 258 265 268 270 269 251 226 207 174 155 168 175 166 153 146 145 181 215 214 198 225 189 15 315 317 290 291 264 308 305 314
360 351 341 324 309 304 301 297 295 292 285 278 264 258 263 277 283 276 242 213 197 175 169 165 163 153 139 151 161 186 209 214 208 211 252 290 303 316 316 305 282 294 298 323 331
11 1 350 341 328 318 311 307 304 300 297 288 271 261 275 297 305 205 223 191 166 172 184 184 158 153 147 156 170 170 224 205 231 226 252 280 284 260 274 290 286 287 309 316 316
15 11 2 351 339 328 322 322 323 322 313 298 277 254 263 280 156 152 169 172 171 173 184 161 156 146 150 166 179 205 228 219 233 238 248 257 266 252 231 261 297 305 291 293 299
15 13 8 1 352 342 335 333 329 327 323 306 281 258 260 264 251 159 144 172 184 183 167 160 157 151 164 158 155 216 252 222 255 276 256 253 252 248 234 268 315 314 297 303 310
13 12 10 7 3 2 353 343 338 337 339 321 281 263 244 248 201 182 157 166 180 162 157 154 157 157 124 150 204 186 262 291 296 282 279 273 277 179 252 299 293 287 289 297 297
17 13 10 12 14 6 354 339 339 342 345 342 299 276 260 231 196 191 178 165 147 156 156 142 127 136 141 146 152 166 274 293 264 269 256 233 263 241 266 264 260 285 288 278 288
13 11 7 0 357 352 342 330 322 316 314 311 300 295 256 201 196 191 185 181 184 183 165 171 156 131 162 119 66 213 221 261 147 292 270 212 270 292 229 199 285 303 304 306 292
5 4 0 355 342 334 332 325 306 291 280 279 287 293 269 221 206 188 189 196 186 189 195 214 210 118 131 179 260 65 262 258 297 301 245 238 290 311 267 309 288 285 293 300 303
354 352 350 345 337 317 313 324 316 286 260 259 253 288 242 154 183 194 195 182 165 166 153 167 132 174 140 195 246 194 214 221 270 271 311 291 281 277 286 286 286 293 289 288 295
339 342 338 334 329 308 297 317 330 285 238 226 196 229 252 300 189 203 203 194 186 139 197 98 216 222 223 217 237 244 260 272 275 278 284 279 283 280 285 289 277 284 278 276 277
331 331 331 324 318 300 269 263 273 304 291 275 255 255 242 204 314 198 193 181 181 202 145 206 243 242 223 207 219 234 265 274 279 274 207 289 284 283 271 266 267 269 273 268 274
328 325 320 320 312 289 240 238 299 330 282 289 242 238 233 219 226 213 182 183 181 198 205 232 236 99 205 217 227 233 246 260 266 300 245 276 279 267 263 246 261 256 257 267 275
326 322 315 315 312 294 212 199 303 323 308 272 244 195 165 156 208 211 191 176 183 219 201 250 263 244 234 243 223 264 232 252 272 293 288 345 287 278 277 260 248 259 260 263 269
329 323 308 301 286 255 179 179 317 33 332 42 75 133 164 188 114 182 192 196 201 174 188 216 198 175 212 244 181 256 186 247 272 273 285 274 274 267 230 254 257 259 269 287 307
336 325 306 293 281 190 179 173 129 99 286 8 113 125 153 241 2 98 177 205 217 206 240 262 237 245 260 230 201 273 292 285 259 272 255 262 250 266 257 258 276 268 304 338 340
347 345 338 312 131 158 164 154 96 174 332 4 343 323 239 232 238 267 170 191 214 199 233 261 253 254 248 270 257 252 264 277 265 246 269 283 265 267 261 234 253 294 332 349 346
29 46 49 93 131 137 158 139 99 333 351 346 350 36 68 22 33 29 78 233 219 250 273 268 271 215 175 219 260 231 230 253 271 277 282 250 255 253 234 265 121 116 1 351 345
59 67 60 76 123 117 108 66 110 358 337 350 28 26 2 12 33 19 355 352 12 150 270 281 243 298 331 31 209 253 247 278 270 270 270 248 261 262 237 223 317 14 359 348 340
14 60 41 56 51 108 84 113 151 59 45 36 318 348 339 2 30 18 265 267 327 338 28 257 279 254 269 305 252 237 332 268 235 277 267 249 258 259 259 204 11 348 342 339 339
37 69 13 10 24 66 90 88 121 88 109 159 235 248 270 303 301 291 278 296 346 326 313 314 258 248 304 241 266 277 256 242 283 267 270 282 272 52 133 74 355 343 344 344 340
46 67 11 6 29 30 65 346 350 17 32 270 231 225 236 244 238 221 231 223 255 284 295 339 298 256 252 266 275 281 264 234 226 206 238 276 268 104 92 2 353 347 340 335 334
30 351 3 72 63 42 350 354 357 33 18 356 320 21 10 305 267 302 297 207 79 328 2 349 223 277 259 229 98 261 283 280 253 171 223 249 262 146 282 325 330 332 325 323 328
20 28 18 54 48 44 6 9 4 358 94 4 298 71 290 268 249 275 267 287 273 275 300 13 248 251 265 290 263 264 243 258 213 248 276 257 283 286 300 305 303 308 314 319 324
34 65 24 14 43 25 322 340 350 349 352 19 78 0 247 262 259 250 265 272 287 275 213 207 242 250 271 274 268 266 265 257 248 255 260 280 283 290 304 295 294 301 305 312 319
54 11 25 104 353 356 66 97 319 2 319 305 275 315 275 238 262 290 294 283 258 267 212 188 272 254 277 276 273 279 270 259 257 264 266 271 276 305 259 270 285 297 306 309 314
48 19 54 359 357 327 357 33 334 333 282 250 314 315 289 281 290 281 275 271 253 239 246 212 243 256 270 313 311 281 275 254 251 247 257 261 289 277 286 294 305 306 307 306 307